Regional Weather Roundup
Issued by NWS

Home | Current Version | Previous Version | Text Only | Print | Product List | Glossary On
Versions: 1 2 3 4 5 6 7 8 9 10 11 12 13 14 15 16 17 18 19 20 21 22 23 24 25 26
000
ASUS42 KTBW 121416
RWRFL
FLORIDA REGIONAL WEATHER ROUNDUP
NATIONAL WEATHER SERVICE TAMPA BAY RUSKIN FL
900 AM EST TUE DEC 12 2017

NOTE: "FAIR" INDICATES FEW OR NO CLOUDS BELOW 12,000 FEET WITH NO
SIGNIFICANT WEATHER AND/OR OBSTRUCTIONS TO VISIBILITY.

FLZ001>010-012>015-112-114-115-121500-
PANHANDLE FLORIDA

CITY           SKY/WX    TMP DP  RH WIND       PRES   REMARKS
PENSACOLA      SUNNY     53  39  59 NW15G24   30.05R
PENSACOLA NAS  SUNNY     53  40  61 NW13G20   30.05R
MILTON NAS     SUNNY     49  40  71 NW12      30.05  WCI  44
CRESTVIEW      SUNNY     50  40  68 NW10      30.04R
DUKE FIELD     FAIR      49  40  71 NW12      30.02R WCI  45
VALPARAISO     MOSUNNY   52  40  62 NW15      30.02R
MARY ESTHER    SUNNY     53  41  63 NW8       30.02R
PANAMA CITY    FAIR      55  42  61 W16       30.01R
TYNDALL AFB    SUNNY     61  43  50 NW21G28   30.01R
APALACHICOLA   SUNNY     64  54  69 W9        29.99S

STATION/POSITION SKY/WX   TEMP    WIND        PRES    WAVE   SWELL
                          AIR SEA DIR/SP/G            HT/PER HT/PER
                          (F)     (DEG/KT/KT) (MB)    (FT/S) (FT/S)
29.2N   88.2W              64 74  300/ 23/ 29 1019.2
28.8N   86.0W              70 74  270/ 23/ 27 1016.8S   7/ 7
PANAMA CITY BEAC           57 62  300/ 19/ 23 1016.7R
TOWER C                    67     280/ 21/ 23 1016.6S

$$
FLZ011-016>038-118-127-128-134-139-239-121500-
NORTH FLORIDA

CITY           SKY/WX    TMP DP  RH WIND       PRES   REMARKS
MARIANNA       SUNNY     52  43  71 W12       29.98R
TALLAHASSEE    SUNNY     44  41  89 CALM      29.98S
PERRY          SUNNY     58  54  86 W8        30.00R
LIVE OAK       SUNNY     54  54 100 VRB7      29.99R
CROSS CITY     SUNNY     56  54  92 SW5       30.04F
LAKE CITY      FAIR      52  50  93 SW7       29.98S
GAINESVILLE    SUNNY     52  50  93 SW5       30.03F
WILLISTON      SUNNY     52  52 100 CALM      30.02F
PALATKA        FAIR      50  50 100 SW6       30.02S
MAYPORT NAS    MOSUNNY   56  52  86 SW9       29.97F
JACKSONVILLE   MOSUNNY   55  52  89 SW8       29.96F
JAX NAS        MOSUNNY   54  50  86 SW8       29.98F
JAX CECIL      SUNNY     48  48 100 CALM      29.98S
ST AUGUSTINE   SUNNY     53  49  86 SW7       30.00F
PALM COAST     SUNNY     52  48  87 SW10      30.02F

STATION/POSITION SKY/WX   TEMP    WIND        PRES    WAVE   SWELL
                          AIR SEA DIR/SP/G            HT/PER HT/PER
                          (F)     (DEG/KT/KT) (MB)    (FT/S) (FT/S)
SHELL POINT      NOT AVBL
KEATON BEACH               60     260/  9/  9 1015.2S
CEDAR KEY                  63     260/  7/  9 1016.6F
FERNANDINA                 54 57  220/  7/ 13 1015.2F
30.7N   81.3W                 61                N/A     2/ 3
MAYPORT                    54 60  230/ 10/ 12 1015.1F
31.4N   80.9W              57 61  220/ 21/ 25 1012.3F   3/ 5   2/ 9
ST AUGUSTINE               53 60  210/  8/ 11 1015.9F

$$
FLZ040-043>046-052-053-057-058-063-144-121500-
INTERIOR CENTRAL FLORIDA

CITY           SKY/WX    TMP DP  RH WIND       PRES   REMARKS
OCALA          SUNNY     51  49  92 S6        30.03F
LEESBURG       SUNNY     56  52  86 SW9       30.04F
SANFORD        SUNNY     54  48  80 SW8       30.04F
ORLANDO EXEC   SUNNY     55  50  83 SW10      30.05S
ORLANDO INTL   MOSUNNY   54  46  76 SW12      30.07S
KISSIMMEE      SUNNY     55  49  80 SW9       30.07F
WINTER HAVEN   SUNNY     55  50  83 S8        30.08S
LAKELAND       MOSUNNY   52  50  93 S5        30.07S
BARTOW         MOSUNNY   54  48  82 SW9       30.08S
SEBRING        FAIR      57  48  73 SW5       30.09S

$$
FLZ041-047-054-059-064-141-147-121500-
EAST CENTRAL FLORIDA

CITY           SKY/WX    TMP DP  RH WIND       PRES   REMARKS
ORMOND BEACH   SUNNY     50  48  93 SW6       30.03S
DAYTONA BEACH  MOSUNNY   52  50  93 SW9       30.03F
DELAND         SUNNY     54  48  82 S7        30.03F
NEW SMYRNA BEA SUNNY     52  46  82 SW8       30.05S
JFK SPACE CTR  SUNNY     55  47  76 SW9       30.04F HAZE
TITUSVILLE     SUNNY     54  45  71 S12       30.07F
CAPE CANAVERAL SUNNY     56  38  50 SW9       30.04F
PATRICK AFB    SUNNY     57  39  50 SW14      30.06S
MELBOURNE      SUNNY     55  42  61 SW10      30.07S
VERO BEACH     SUNNY     54  41  61 SW6       30.09S
FT PIERCE      SUNNY     54  45  71 SW3       30.09F
STUART         SUNNY     57  45  62 W7        30.12R

STATION/POSITION SKY/WX   TEMP    WIND        PRES    WAVE   SWELL
                          AIR SEA DIR/SP/G            HT/PER HT/PER
                          (F)     (DEG/KT/KT) (MB)    (FT/S) (FT/S)
28.5N   80.2W              61 75  240/ 14/ 17 1017.7F   3/ 9   2/ 9
TRIDENT PIER               56 70  210/ 10/ 13 1019.4F
28.4N   80.5W                 69                N/A     2/10
27.5N   80.2W                 71                N/A     2/ 9

$$
FLZ050-056-061-142-242-148-248-149-249-151-251-155-255-
160-260-121500-
WEST CENTRAL FLORIDA

CITY           SKY/WX    TMP DP  RH WIND       PRES   REMARKS
CRYSTAL RIVER  FAIR      54  50  87 CALM      30.04S
INVERNESS      FAIR      54  52  94 S3        30.05S
BROOKSVILLE    MOSUNNY   54  51  90 S5        30.06S
CLEARWATER AIR FAIR      61  55  82 CALM      30.06S
ST PETE CLEARW MOSUNNY   62  58  86 S7        30.06S
TAMPA INTL     MOSUNNY   61  55  81 S9        30.07S
TAMPA EXEC     MOSUNNY   55  52  88 SW7       30.08S
PLANT CITY     SUNNY     57  50  77 S7        30.09S
MACDILL AFB    MOSUNNY   61  55  78 S6        30.06S
PETER O KNIGHT   N/A     59  55  88 S8        30.07S
ST PETERSBURG  PTSUNNY   61  55  81 SW7       30.05S
SARASOTA       PTSUNNY   56  48  74 SE6       30.06S
VENICE         NOT AVBL

STATION/POSITION SKY/WX   TEMP    WIND        PRES    WAVE   SWELL
                          AIR SEA DIR/SP/G            HT/PER HT/PER
                          (F)     (DEG/KT/KT) (MB)    (FT/S) (FT/S)
27.3N   84.2W                 75                N/A     3/ 4
CLEARWATER BEACH           67 62  260/ 13/ 15 1017.9R
MIDDLE TAMPA BAY           58     180/ 10/ 11 1018.2S
VENICE                     61 67   80/  4/  5 1018.6F

$$
FLZ066-069-070-075>078-162-262-165-265-121500-
SOUTHWEST FLORIDA AND KEYS

CITY           SKY/WX    TMP DP  RH WIND       PRES   REMARKS
PUNTA GORDA    MOSUNNY   57  48  72 S5        30.11S
FT MYERS       SUNNY     58  47  66 SE5       30.10S
SOUTHWEST INTL SUNNY     57  49  74 S3        30.11R
NAPLES         MOSUNNY   57  45  64 SE6       30.11S
MARCO ISLAND   SUNNY     56  47  71 CALM      30.13R
IMMOKALEE      FAIR      54  46  76 SE5       30.12S
MARATHON       SUNNY     64  48  56 N7        30.13R
KEY WEST NAS   MOSUNNY   64  55  72 E5        30.13R
KEY WEST INTL  MOSUNNY   64  53  67 SE3       30.13S

STATION/POSITION SKY/WX   TEMP    WIND        PRES    WAVE   SWELL
                          AIR SEA DIR/SP/G            HT/PER HT/PER
                          (F)     (DEG/KT/KT) (MB)    (FT/S) (FT/S)
NAPLES                        67  120/  5/  7 1019.4R
DRY TORTUGAS               70     290/ 10/ 12 1020.0F
SAND KEY                   67                 1020.8R
MOLASSES REEF              59 74  340/ 13/ 14 1020.4R

$$
FLZ067-068-071>074-168-172>174-121500-
SOUTHEAST FLORIDA

CITY           SKY/WX    TMP DP  RH WIND       PRES   REMARKS
W PALM BEACH   MOSUNNY   57  46  66 SW5       30.12R
BOCA RATON     SUNNY     57  46  67 VRB5      30.11R
FT LAUDER-EXEC SUNNY     57  45  64 W5        30.12S
FT LAUDERDALE  MOSUNNY   57  43  59 W6        30.12R
POMPANO BEACH  SUNNY     58  47  66 W6        30.12S
PEMBROKE PINES SUNNY     58  43  57 NW6       30.14R
OPA LOCKA      SUNNY     58  44  60 W7        30.13R
MIAMI          MOSUNNY   60  44  55 NW6       30.13S
WEST KENDALL   SUNNY     57  49  74 NW6       30.13S
HOMESTEAD      SUNNY     56  46  67 NW6       30.12

STATION/POSITION SKY/WX   TEMP    WIND        PRES    WAVE   SWELL
                          AIR SEA DIR/SP/G            HT/PER HT/PER
                          (F)     (DEG/KT/KT) (MB)    (FT/S) (FT/S)
PORT EVERGLADES            57     300/  7/  9 1019.8R
VIRGINIA KEY               61 70  290/  5/  7 1019.5R
LAKE WORTH                 57 75  250/  4/  6 1020.6R
FOWEY ROCKS                60 74  310/ 13/ 14 1020.5R
SETTLEMENT POINT           66     280/ 14/ 16 1019.1R

$$





USA.gov is the U.S. government's official web portal to all federal, state and local government web resources and services.